Location: Vancouver
(49.2500°N, 123.1330°W)
Time: 11:02:11
(UTC-07:00)

ISS - All Passes

Search period start: 21 August 2014 00:00
Search period end: 31 August 2014 00:00
Orbit: 413 x 419 km, 51.6° (Epoch: 21 August)

Date Brightness Start Highest point End Pass type
(mag) Time Alt. Az. Time Alt. Az. Time Alt. Az.
21 Aug - 14:47:42 10° SSW 14:50:18 21° SE 14:52:55 10° E daylight
21 Aug - 16:23:23 10° WSW 16:26:43 88° SSE 16:30:04 10° ENE daylight
21 Aug - 18:00:20 10° W 18:03:37 54° N 18:06:54 10° E daylight
21 Aug - 19:37:11 10° WNW 19:40:32 88° SSW 19:43:52 10° ESE daylight
21 Aug - 21:14:18 10° W 21:16:57 22° SW 21:19:35 10° SSE visible
22 Aug - 14:00:07 10° S 14:01:58 14° SE 14:03:50 10° ESE daylight
22 Aug - 15:34:55 10° WSW 15:38:12 64° SSE 15:41:31 10° ENE daylight
22 Aug - 17:11:44 10° W 17:15:01 56° N 17:18:19 10° ENE daylight
22 Aug - 18:48:39 10° WNW 18:51:59 73° NNE 18:55:19 10° E daylight
22 Aug - 20:25:32 10° W 20:28:34 32° SSW 20:31:35 10° SSE daylight
23 Aug - 14:46:32 10° SW 14:49:43 44° SSE 14:52:55 10° ENE daylight
23 Aug - 16:23:06 10° W 16:26:25 63° N 16:29:44 10° ENE daylight
23 Aug - 18:00:05 10° WNW 18:03:23 61° N 18:06:42 10° E daylight
23 Aug - 19:36:53 10° WNW 19:40:07 48° SSW 19:43:20 10° SE daylight
24 Aug - 13:58:19 10° SSW 14:01:15 30° SE 14:04:13 10° E daylight
24 Aug - 15:34:29 10° WSW 15:37:48 76° NNW 15:41:09 10° ENE daylight
24 Aug - 17:11:28 10° WNW 17:14:45 55° N 17:18:03 10° E daylight
24 Aug - 18:48:16 10° WNW 18:51:36 69° SSW 18:54:54 10° ESE daylight
24 Aug - 20:25:48 10° W 20:27:51 15° SW 20:29:55 10° S daylight
25 Aug - 13:10:19 10° S 13:12:50 20° SE 13:15:21 10° E daylight
25 Aug - 14:45:53 10° WSW 14:49:13 84° SSE 14:52:33 10° ENE daylight
25 Aug - 16:22:49 10° W 16:26:06 54° N 16:29:23 10° ENE daylight
25 Aug - 17:59:40 10° WNW 18:03:01 88° NNE 18:06:21 10° ESE daylight
25 Aug - 19:36:45 10° W 19:39:27 23° SW 19:42:10 10° SSE daylight
26 Aug - 12:22:46 10° SSE 12:24:26 13° SE 12:26:06 10° ESE daylight
26 Aug - 13:57:21 10° SW 14:00:38 61° SSE 14:03:56 10° ENE daylight
26 Aug - 15:34:08 10° W 15:37:26 57° N 15:40:43 10° ENE daylight
26 Aug - 17:11:03 10° WNW 17:14:23 70° NNE 17:17:43 10° E daylight
26 Aug - 18:47:55 10° W 18:50:59 34° SSW 18:54:03 10° SSE daylight
27 Aug - 13:08:55 10° SW 13:12:05 41° SSE 13:15:15 10° ENE daylight
27 Aug - 14:45:26 10° W 14:48:45 64° NNW 14:52:04 10° ENE daylight
27 Aug - 16:22:25 10° WNW 16:25:43 60° N 16:29:01 10° E daylight
27 Aug - 17:59:12 10° WNW 18:02:27 51° SSW 18:05:42 10° SE daylight
27 Aug - 19:37:49 10° WSW 19:38:33 11° SW 19:39:18 10° SSW daylight
28 Aug - 12:20:39 10° SSW 12:23:33 28° SE 12:26:28 10° E daylight
28 Aug - 13:56:44 10° WSW 14:00:04 79° NNW 14:03:25 10° ENE daylight
28 Aug - 15:33:43 10° WNW 15:37:00 55° N 15:40:18 10° E daylight
28 Aug - 17:10:32 10° WNW 17:13:51 73° SSW 17:17:10 10° ESE daylight
28 Aug - 18:47:57 10° W 18:50:09 17° SW 18:52:20 10° S daylight
29 Aug - 11:32:39 10° S 11:35:04 19° SE 11:37:29 10° E daylight
29 Aug - 13:08:05 10° WSW 13:11:24 80° SSE 13:14:45 10° ENE daylight
29 Aug - 14:45:00 10° W 14:48:17 54° N 14:51:34 10° ENE daylight
29 Aug - 16:21:51 10° WNW 16:25:12 85° NNE 16:28:32 10° ESE daylight
29 Aug - 17:58:53 10° W 18:01:40 25° SW 18:04:26 10° SSE daylight
30 Aug - 10:45:11 10° SSE 10:46:36 12° SE 10:48:02 10° ESE daylight
30 Aug - 12:19:29 10° SW 12:22:45 57° SSE 12:26:02 10° ENE daylight
30 Aug - 13:56:14 10° W 13:59:32 58° N 14:02:50 10° ENE daylight
30 Aug - 15:33:10 10° WNW 15:36:30 68° NNE 15:39:49 10° E daylight
30 Aug - 17:10:00 10° W 17:13:07 37° SSW 17:16:12 10° SE daylight
